AO-07 1 07530U 74089B 18073.92700081 -.00000040 00000-0 31245-4 0 9993 2 07530 101.6755 42.7046 0012164 156.1304 262.4490 12.53631637982787 UO-11 1 14781U 84021B 18074.07881350 .00000095 00000-0 17847-4 0 9993 2 14781 97.6617 114.2473 0009355 40.1227 320.0676 14.82986633830497 LO-19 1 20442U 90005G 18074.78164923 -.00000011 00000-0 12206-4 0 9994 2 20442 98.6028 13.8878 0012860 67.9584 292.2964 14.32889172470514 HUBBLE 1 20580U 90037B 18074.27575624 .00000581 00000-0 24722-4 0 9997 2 20580 28.4706 15.8963 0002671 204.5604 282.2589 15.08996109331273 MET-2/21 1 22782U 93055A 18073.89232359 .00000016 00000-0 68725-6 0 9994 2 22782 082.5520 168.7644 0022854 034.8440 102.8741 13.83809537238862 AO-27 1 22825U 93061C 18074.18326608 .00000003 00000-0 18977-4 0 9991 2 22825 98.8524 48.6469 0007335 260.0091 100.0262 14.30024140276139 IO-26 1 22826U 93061D 18074.15188306 .00000000 00000-0 17917-4 0 9990 2 22826 98.8466 48.6646 0007901 248.7137 111.3202 14.30355130276310 FO-29 1 24278U 96046B 18074.02402223 -.00000008 00000-0 28678-4 0 9997 2 24278 98.5264 285.7058 0350317 355.4029 4.3921 13.53081906 65502 NOAA-15 1 25338U 98030A 18074.51009029 .00000028 00000-0 30778-4 0 9996 2 25338 98.7753 90.8528 0011334 135.7426 224.4662 14.25841899 31678 GO-32 1 25397U 98043D 18074.76722206 -.00000017 00000-0 11514-4 0 9997 2 25397 98.6416 16.7948 0000539 354.0424 6.0748 14.23641384 22438 ISS 1 25544U 98067A 18074.97474216 -.00000121 00000-0 54104-5 0 9994 2 25544 51.6414 123.3975 0002254 190.1883 232.3546 15.54092964104023 NO-44 1 26931U 01043C 18074.52716637 .00000002 00000-0 32493-4 0 9993 2 26931 67.0500 111.0818 0006478 282.9684 77.0694 14.30496971859150 SO-50 1 27607U 02058C 18073.93045360 .00000031 00000-0 25144-4 0 9990 2 27607 064.5569 018.1380 0054214 350.4884 009.5186 14.75428129818928 CO-55 1 27844U 03031E 18074.59341870 .00000071 00000-0 51919-4 0 9996 2 27844 98.6893 84.6204 0008656 283.9618 76.0597 14.22099663762894 CO-57 1 27848U 03031J 18074.52675036 .00000044 00000-0 39884-4 0 9994 2 27848 98.6980 84.9205 0008622 295.6131 64.4155 14.21705381762758 RS-22 1 27939U 03042A 18074.85881868 .00000120 00000-0 30088-4 0 9997 2 27939 97.9741 216.4871 0014330 85.7096 32.8091 14.66664900773130 NOAA-18 1 28654U 05018A 18074.45337479 .00000032 00000-0 42816-4 0 9991 2 28654 99.1569 107.9465 0014749 34.6477 325.5652 14.12369326660551 CO-58 1 28895U 05043F 18074.40615385 .00000158 00000-0 39117-4 0 9995 2 28895 97.8942 229.7336 0016890 10.7849 349.3713 14.63518436660157 Falconsat-3 1 30776U 07006E 18073.66060957 .00002715 00000-0 81929-4 0 9992 2 30776 35.4352 148.3138 0003893 256.9756 103.0536 15.34059690609799 CO-65 1 32785U 08021C 18074.78420999 .00000266 00000-0 34480-4 0 9991 2 32785 97.5520 91.4010 0012850 355.2026 4.9066 14.88076410535286 AAUSAT2 1 32788U 08021F 18074.54173507 .00000497 00000-0 51357-4 0 9996 2 32788 97.5312 104.9069 0010505 306.5307 53.4945 14.94248045536196 DO-64 1 32789U 08021G 18074.09254421 .00001671 00000-0 11927-3 0 9995 2 32789 97.5242 131.2450 0011036 256.1451 103.8548 15.05817086537624 CO-66 1 32791U 08021J 18074.68893735 .00000357 00000-0 41906-4 0 9991 2 32791 97.5430 96.4496 0012630 336.0764 23.9866 14.90487918535582 RS-30 1 32953U 08025A 18074.83840592 .00000022 00000-0 84489-4 0 9997 2 32953 82.4996 70.7295 0020204 55.5721 304.7265 12.43082325445173 PRISM 1 33493U 09002B 18074.73915153 .00001128 00000-0 10581-3 0 9997 2 33493 98.1397 333.2022 0013506 266.2079 93.7619 14.96112086496375 NOAA-19 1 33591U 09005A 18074.48056149 .00000086 00000-0 72094-4 0 9992 2 33591 99.1323 50.6959 0013194 227.5253 132.4803 14.12261425468948 TISAT-1 1 36799U 10035E 18073.94593769 .00000371 00000-0 43824-4 0 9990 2 36799 98.0906 207.7549 0013107 152.8658 207.3246 14.90719197416114 JUGNU 1 37839U 11058B 18071.86620299 .00000333 00000-0 35661-4 0 9998 2 37839 019.9610 261.3224 0018912 265.1639 226.3607 14.12612062331627 SRMSAT 1 37841U 11058D 18073.02579208 .00000319 00000-0 30148-4 0 9993 2 37841 19.9724 301.5318 0011892 165.1205 353.5864 14.10600486331437 AO-71 1 37854U 11061E 18074.76100787 .00002215 00000-0 12304-3 0 9995 2 37854 101.7122 91.8618 0164273 350.5998 9.2150 15.05188095347775 HRBE 1 37855U 11061F 18074.75780960 .00002435 00000-0 13198-3 0 9998 2 37855 101.7252 89.4759 0177312 358.7994 1.2768 15.04161025347605 ALMASAT-1 1 38078U 12006B 18074.87210832 .00027360 39804-5 24899-3 0 9998 2 38078 69.4337 113.9551 0262712 247.1375 239.2724 15.35531497326300 HORYU-2 1 38340U 12025D 18074.69650649 .00000209 00000-0 38833-4 0 9993 2 38340 98.3730 93.1774 0012386 143.7005 216.5045 14.75511829313329 RS-40 1 38735U 12041C 18074.71417886 .00000008 00000-0 -17225-4 0 9996 2 38735 82.4780 154.9048 0017797 155.0036 205.1908 12.42576685255428 BEESAT-3 1 39134U 13015E 18073.39690950 .00001593 00000-0 85208-4 0 9995 2 39134 64.8632 73.4755 0021734 223.0426 136.9002 15.18887239270505 BEESAT-2 1 39136U 13015G 18073.53134561 .00001036 00000-0 63570-4 0 9994 2 39136 064.8682 087.7161 0027877 246.2635 113.5566 15.15930753269853 ZACUBE-1 1 39417U 13066B 18074.12603839 .00000263 00000-0 39492-4 0 9994 2 39417 97.5979 107.7373 0060682 103.0578 257.7418 14.80889258232875 TRITON-1 1 39427U 13066M 18074.69257136 .00000155 00000-0 32743-4 0 9994 2 39427 97.6391 76.8320 0113667 198.2280 161.4837 14.67621461230869 GOMX-1 1 39430U 13066Q 18074.89955270 .00000178 00000-0 41692-4 0 9992 2 39430 97.6891 58.5414 0150155 265.0292 93.3753 14.59037963229540 LO-74 1 39440U 13066AA 18074.70124071 .00000226 00000-0 38396-4 0 9991 2 39440 97.6076 95.4642 0081639 138.3799 222.3664 14.75624673232135 AO-73 1 39444U 13066AE 18074.64375651 .00000312 00000-0 44770-4 0 9999 2 39444 97.5987 109.6340 0059866 97.2990 263.5033 14.81656764231808 SPROUT 1 39770U 14029E 18074.23871495 .00000737 00000-0 88963-4 0 9996 2 39770 97.8714 176.1062 0009823 149.0929 211.0893 14.86711877206409 DUCHIFAT-1 1 40021U 14033M 18074.72960618 .00000518 00000-0 59225-4 0 9998 2 40021 97.9174 353.2807 0014103 122.8665 237.3912 14.90222605203039 NANOSATCBR1 1 40024U 14033Q 18074.18735049 .00000458 00000-0 54025-4 0 9995 2 40024 97.9116 351.1625 0013343 126.2034 234.0419 14.89497351202884 EO-79 1 40025U 14033R 18074.71938276 .00000332 00000-0 41587-4 0 9992 2 40025 97.9082 350.3000 0013550 128.4162 231.8273 14.88653532202888 DTUSAT-2 1 40030U 14033W 18074.72712399 .00000287 00000-0 37133-4 0 9996 2 40030 97.9035 349.1203 0013082 123.4547 236.7922 14.88266074202836 EO-80 1 40032U 14033Y 18074.71385595 .00000317 00000-0 40368-4 0 9999 2 40032 97.9040 349.1108 0013029 124.0115 236.2341 14.88202199202824 ANTELSAT 1 40034U 14033AA 18074.65436983 .00000234 00000-0 42228-4 0 9997 2 40034 97.8252 314.6368 0059774 138.2593 222.3199 14.73875447200910 VELOX-1 1 40057U 14034E 18074.84518954 .00000274 00000-0 46115-4 0 9996 2 40057 98.1930 184.3362 0009477 267.0680 92.9426 14.77361676199864 DAURIA DX 1 1 40071U 14037C 18074.85436380 .00000117 00000-0 22469-4 0 9990 2 40071 98.3590 202.1362 0006990 260.2084 99.8364 14.81130615199187 UKUBE-1 1 40074U 14037F 18074.88704878 .00000329 00000-0 46871-4 0 9994 2 40074 98.3716 207.5166 0003210 250.2237 109.8660 14.83736418199469 HODOYOSHI-1 1 40299U 14070B 18074.83074573 .00000618 00000-0 29445-4 0 9996 2 40299 97.3812 158.2451 0011836 213.1876 286.6553 15.22765801186275 CHUBUSAT-1 1 40300U 14070C 18074.84243595 .00000608 00000-0 30056-4 0 9991 2 40300 97.3702 154.5137 0018751 227.3775 270.4487 15.21423246186083 QSAT-EOS 1 40301U 14070D 18074.86284756 .00001718 00000-0 72406-4 0 9996 2 40301 97.3639 155.4616 0025448 218.5160 253.1675 15.24416265186203 FIREBIRD FU3 1 40377U 15003B 18073.73486885 .00001932 00000-0 83151-4 0 9995 2 40377 99.0989 316.7314 0132186 184.2735 175.7376 15.16814684172003 FIREBIRD FU4 1 40378U 15003C 18074.84580149 .00002218 00000-0 94580-4 0 9993 2 40378 99.0991 318.1168 0132469 180.4697 179.6429 15.16830862172175 GRIFEX 1 40379U 15003D 18074.83733844 .00001574 00000-0 73029-4 0 9994 2 40379 99.1026 314.6959 0138957 191.7973 167.9989 15.14043081171970 NO-84 1 40654U 15025D 18074.30858667 .00007298 00000-0 12681-3 0 02456 2 40654 054.9942 099.8867 0160408 229.9320 128.7414 15.39045922041380 NO-83 1 40655U 15025E 18074.24411325 .00014597 00000-0 17568-3 0 02826 2 40655 054.9794 053.4392 0113984 257.9872 100.8335 15.53611544041664 DEORBITSAIL 1 40719U 15032E 18074.18267519 .00000461 00000-0 73606-4 0 9998 2 40719 97.9557 329.1779 0016542 355.9587 4.1486 14.76354509144302 NUDT-PHONESAT 1 40900U 15049B 18074.82791553 .00002882 00000-0 13323-3 0 9997 2 40900 97.4429 84.1745 0013549 4.0012 356.1329 15.20902140137721 XW-2A 1 40903U 15049E 18074.82356640 .00002273 00000-0 58737-4 0 9997 2 40903 97.3955 108.7141 0014656 14.2607 345.9049 15.40110214139433 XW-2C 1 40906U 15049H 18074.73556774 .00000844 00000-0 48561-4 0 9996 2 40906 97.4601 79.9485 0015028 0.4939 359.6306 15.15055389137343 XW-2D 1 40907U 15049J 18074.82911576 .00000893 00000-0 50993-4 0 9998 2 40907 97.4574 79.7492 0014323 358.3608 1.7575 15.15196731137366 LILACSAT-2 1 40908U 15049K 18074.85693079 .00000432 00000-0 27761-4 0 9993 2 40908 97.4683 79.2535 0015953 358.2534 1.8639 15.13430420137252 XW-2F 1 40910U 15049M 18074.84919723 .00001323 00000-0 71549-4 0 9995 2 40910 97.4580 80.9159 0014930 354.1916 5.9141 15.16322411137318 XW-2B 1 40911U 15049N 18074.84327415 .00000870 00000-0 49863-4 0 9997 2 40911 97.4611 80.2646 0014239 358.8569 1.2628 15.15144386137260 DCBB 1 40912U 15049P 18074.85870752 .00001226 00000-0 62604-4 0 9990 2 40912 97.4519 83.5151 0014794 343.6287 136.3044 15.18513249137500 TW-1C 1 40926U 15051B 18074.88545402 .00006921 00000-0 13664-3 0 9990 2 40926 97.1958 117.7044 0008264 256.2819 225.9602 15.47443675138878 TW-1A 1 40928U 15051D 18074.87578995 .00003057 00000-0 83449-4 0 9990 2 40928 97.1960 110.6851 0010616 305.0584 180.1989 15.38131844138431 IO-86 1 40931U 15052B 18074.57637331 .00000681 00000-0 58506-5 0 9999 2 40931 5.9988 97.6229 0012832 123.9431 236.2040 14.76568048133140 LQSat 1 40958U 15057A 18074.89969693 .00000017 00000-0 10435-4 0 9998 2 40958 97.9476 150.0589 0016653 277.1628 82.7677 14.73020255131115 AO-85 1 40967U 15058D 18074.06902077 .00000148 00000-0 34548-4 0 02686 2 40967 064.7761 116.9769 0197359 343.2417 016.2224 14.75652706039761 ATHENOXAT-1 1 41168U 15077C 18074.40224249 .00002233 00000-0 86341-4 0 9993 2 41168 14.9868 346.5931 0011744 180.1157 326.9239 15.12531764124151 ChubuSat-2 1 41338U 16012B 18074.68314628 .00000439 00000-0 27605-4 0 9997 2 41338 31.0026 187.7022 0013882 227.8949 132.0506 14.99935429113785 ChubuSat-3 1 41339U 16012C 18074.70867432 .00000407 00000-0 24997-4 0 9993 2 41339 31.0095 186.2724 0013762 235.2465 124.6894 15.00126419113778 Horyu-4 1 41340U 16012D 18074.68491395 .00000662 00000-0 43983-4 0 9992 2 41340 31.0046 181.8989 0014133 246.5317 113.3833 15.00910763113832 OUFTI-1 1 41458U 16025C 18074.86191715 .00001181 00000-0 65285-4 0 9995 2 41458 98.1466 132.6916 0172492 100.4936 261.5712 15.04341283103407 e-st@r-II 1 41459U 16025D 18074.85285821 .00001151 00000-0 64023-4 0 9993 2 41459 98.1458 132.5567 0173154 101.0589 261.0144 15.04092044103397 AAUSAT4 1 41460U 16025E 18074.85026813 .00001943 00000-0 10407-3 0 9994 2 41460 98.1411 132.9168 0164832 97.8354 264.1620 15.05407778103448 LO-87 1 41557U 16033B 18074.79482532 .00001710 00000-0 65034-4 0 9996 2 41557 97.4402 159.1783 0015299 124.4801 235.7885 15.28074577 99899 NuSat2 1 41558U 16033C 18074.79233144 .00001757 00000-0 67110-4 0 9998 2 41558 97.4429 159.2594 0014743 123.3614 236.9039 15.27907581 99885 Lapan A3 1 41603U 16040E 18074.89518407 .00000203 00000-0 12735-4 0 9994 2 41603 97.4230 138.0564 0012403 199.9378 246.2837 15.19522576 95913 Swayam 1 41607U 16040J 18074.70310201 .00001780 00000-0 81091-4 0 9992 2 41607 97.4242 138.9575 0013378 199.7586 160.3134 15.21913782 95880 Pratham 1 41783U 16059A 18074.70650671 .00000067 00000-0 22326-4 0 9998 2 41783 98.1293 137.7238 0034173 31.2645 329.0579 14.62905933 78290 AlSat 1N 1 41789U 16059G 18074.87902878 .00000057 00000-0 20013-4 0 9991 2 41789 98.1296 138.9281 0029074 24.0812 336.1751 14.64133289 78368 ScatSat 1 41790U 16059H 18074.10685072 .00000018 00000-0 15906-4 0 9995 2 41790 98.2728 123.5422 0018828 24.1147 336.0925 14.50863531 77541 TY-1 1 41844U 16066D 18074.90998201 .00001617 00000-0 71670-4 0 9998 2 41844 97.4065 83.1266 0016334 11.4735 52.0526 15.22955811 74682 Pegasus-1 1 41846U 16066F 18074.62715707 .00000294 00000-0 54799-4 0 9990 2 41846 98.7637 101.1267 0368946 164.4374 196.8526 14.37273317 70460 CAS-2T 1 41847U 16066G 18073.68319739 .00000041 00000-0 16418-4 0 9997 2 41847 98.7580 100.5563 0366559 165.0873 196.1478 14.37866111 70749 STARS-C 1 41895U 98067KR 18061.52581171 .12025536 12682-4 40347-3 0 9991 2 41895 51.6547 142.6546 0011212 346.6197 16.6343 16.43666377 68734 TO-89 1 41932U 98067KU 18074.43490236 .00037580 00000-0 30227-3 0 9990 2 41932 51.6366 101.9150 0002322 189.5556 170.5397 15.70562144 66002 AOBA-V3LOX3 1 41935U 98067KX 18074.12072101 .00039445 00000-0 29034-3 0 9992 2 41935 51.6358 101.2812 0001548 183.5455 176.5533 15.72653002 66087 OSNSAT 1 41939U 98067KZ 18011.28402027 .11925055 12489-4 54124-3 0 9997 2 41939 051.6147 038.9582 0001091 231.1728 128.9202 16.43639489055773 EO-88 1 42017U 17008BX 18074.87850398 .00001839 00000-0 78618-4 0 9993 2 42017 97.4588 140.4588 0006273 3.3552 356.7726 15.24121192 59854 HAVELSAT 1 42700U 98067LH 18074.12250349 .00024682 00000-0 23902-3 0 9990 2 42700 51.6367 114.0696 0003326 272.0467 88.0148 15.66238420 47256 SOMP2 1 42701U 98067LJ 18074.63814526 .00024722 00000-0 24554-3 0 9999 2 42701 51.6362 112.2623 0003367 272.6513 87.4097 15.65601994 47317 Columbia 1 42702U 98067LK 18066.37622415 .22640365 12480-4 12628-2 0 9994 2 42702 51.6147 131.6862 0001623 340.6009 19.7898 16.42105255 46241 PHOENIX 1 42706U 98067LP 18074.12203459 .00020947 00000-0 21191-3 0 9994 2 42706 51.6364 114.8204 0000318 79.0776 281.0255 15.65252065 47151 X-CubeSat 1 42707U 98067LQ 18074.19031693 .00029291 00000-0 28023-3 0 9993 2 42707 51.6341 113.7376 0000492 52.9947 307.1094 15.66443051 47168 qbee 1 42708U 98067LR 18074.16004555 .00024344 00000-0 23850-3 0 9995 2 42708 51.6365 114.3080 0000350 65.6869 294.4163 15.65958601 47112 ZA-AeroSat 1 42713U 98067LU 18074.14136458 .00019564 00000-0 20713-3 0 9990 2 42713 51.6357 116.4412 0001338 144.2545 215.8539 15.64147515 46793 LINK 1 42714U 98067LV 18074.16901411 .00049402 00000-0 40118-3 0 9997 2 42714 51.6323 111.3132 0001089 89.4420 270.6702 15.70209176 46975 UPSat 1 42716U 98067LX 18074.61802221 .00036479 00000-0 31860-3 0 9992 2 42716 51.6350 109.8613 0001961 301.3464 58.7340 15.68579479 47052 SpaceCube 1 42717U 98067LY 18074.63001326 .00025826 00000-0 25317-3 0 9996 2 42717 51.6350 112.1958 0002133 286.0361 74.0400 15.65906688 46262 Hoopoe 1 42718U 98067LZ 18074.71715187 .00033935 00000-0 31279-3 0 9997 2 42718 51.6359 110.5316 0001911 292.0631 68.0162 15.67289711 46296 Challenger 1 42721U 98067MA 18074.45158090 .00072155 00000-0 52305-3 0 9996 2 42721 51.6335 107.9482 0002338 270.6451 89.4280 15.72754339 46000 NJUST-1 1 42722U 98067MB 18074.66338728 .00019348 00000-0 21033-3 0 9997 2 42722 51.6366 114.6857 0004634 245.1355 114.9158 15.63472148 45931 UNSW-EC0 1 42723U 98067MC 18074.61824572 .00033874 00000-0 30907-3 0 9990 2 42723 51.6376 111.3875 0003462 250.0066 110.0558 15.67538255 45958 DUTHsat 1 42724U 98067MD 18074.58387809 .00055303 00000-0 41808-3 0 9997 2 42724 51.6341 108.1067 0001938 276.7039 83.3739 15.71871774 45919 LO-90 1 42725U 98067ME 18074.56813034 .00024595 00000-0 25090-3 0 9994 2 42725 51.6365 114.0492 0003455 251.2352 108.8269 15.64930878 45831 nSIGHT1 1 42726U 98067MF 18074.12948386 .00007966 00000-0 10322-3 0 9991 2 42726 51.6388 120.8993 0004744 243.7134 116.3372 15.59889682 45710 QBITO 1 42728U 98067MH 18074.59889377 .00028877 00000-0 28203-3 0 9999 2 42728 51.6382 112.7889 0001376 277.4997 82.5843 15.65935195 45668 Aalto-2 1 42729U 98067MJ 18074.65437740 .00029584 00000-0 28715-3 0 9994 2 42729 51.6360 112.3760 0001345 278.3135 81.7708 15.66076249 45689 SUSat 1 42730U 98067MK 18074.13335868 .00023766 00000-0 23899-3 0 9991 2 42730 51.6361 115.6367 0001418 264.6996 95.3838 15.65318001 45583 i-INSPIRE II 1 42731U 98067ML 18074.64240024 .00037083 00000-0 33069-3 0 9994 2 42731 51.6350 110.7536 0003729 177.9948 182.1064 15.68056288 45749 PolyITAN-2-SAU 1 42732U 98067MM 18074.63165486 .00029652 00000-0 28492-3 0 9999 2 42732 51.6356 112.1981 0004191 178.8685 181.2321 15.66320895 45728 SNUSAT-1 1 42733U 98067MN 18074.13465292 .00023734 00000-0 23836-3 0 9995 2 42733 51.6362 115.6363 0004516 182.4258 177.6716 15.65344831 45638 ExAlta-1 1 42734U 98067MP 18074.45543616 .00044524 00000-0 39471-3 0 9990 2 42734 51.6338 111.7484 0004373 215.8706 144.1998 15.68112811 45661 Aoxiang-1 1 42735U 98067MQ 18074.64425469 .00020969 00000-0 22561-3 0 9996 2 42735 51.6359 114.5433 0005061 240.8120 119.2368 15.63676006 47069 BeEagleSat 1 42736U 98067MR 18074.13260845 .00021665 00000-0 22475-3 0 9994 2 42736 51.6358 116.3717 0004736 239.0286 121.0244 15.64584144 45687 Atlantis 1 42737U 98067MS 18074.49343849 .00494263 11205-3 11420-2 0 9997 2 42737 51.6221 95.9909 0004457 47.8828 312.2558 15.96609403 45873 CAS-4B 1 42759U 17034B 18074.89445190 .00000194 00000-0 25583-4 0 9993 2 42759 43.0181 235.3993 0009474 248.5882 239.5403 15.09214069 41357 CAS-4A 1 42761U 17034D 18074.87990611 .00000169 00000-0 23961-4 0 9997 2 42761 43.0188 235.3072 0009757 249.6616 233.2201 15.09289838 41348 UCLSat 1 42765U 17036A 18073.91345896 .00001510 00000-0 69905-4 0 9995 2 42765 097.4129 135.2379 0013166 052.6464 307.5969 15.21581483040968 NIUSat 1 42766U 17036B 18074.14406151 .00001207 00000-0 58731-4 0 9992 2 42766 97.4130 134.9420 0017024 38.2130 322.0309 15.20173985 40245 LituanicaSAT 2 1 42768U 17036D 18074.72576321 .00002629 00000-0 12146-3 0 9993 2 42768 97.4140 135.6988 0016784 39.3160 320.9291 15.20950202 40356 Aalto 1 1 42775U 17036L 18074.13231146 .00000999 00000-0 48643-4 0 9999 2 42775 97.4124 135.0988 0015264 39.3331 320.9010 15.20564995 40205 URSA MAIOR 1 42776U 17036M 18074.12333039 .00001048 00000-0 50776-4 0 9999 2 42776 97.4130 135.1231 0015114 39.6782 320.5556 15.20631992 40205 Max Valier Sat 1 42778U 17036P 18074.70804358 .00001149 00000-0 54714-4 0 9990 2 42778 97.4150 135.9280 0013743 43.7289 316.5033 15.21089569 40297 Pegasus 1 42784U 17036V 18074.72876396 .00001419 00000-0 66194-4 0 9995 2 42784 97.4130 135.9893 0013642 49.7302 310.5124 15.21409364 40308 NUDATSat 1 42787U 17036Y 18074.15304386 .00002067 00000-0 93747-4 0 9994 2 42787 97.4136 135.5420 0013235 51.9259 308.3169 15.21872127 40061 SUCHAI 1 1 42788U 17036Z 18074.10936728 .00001621 00000-0 74708-4 0 9992 2 42788 97.4132 135.4411 0013298 51.9767 308.2667 15.21632708 40285 SKCUBE 1 42789U 17036AA 18073.71249354 .00001405 00000-0 65211-4 0 9990 2 42789 097.4131 135.0512 0013152 053.3181 306.9262 15.21613296040140 VZLUSAT 1 1 42790U 17036AB 18073.94663921 .00001925 00000-0 87466-4 0 9990 2 42790 097.4133 135.3468 0012804 053.0465 307.1941 15.21898855040189 VENTA 1 1 42791U 17036AC 18073.69764687 .00001322 00000-0 61423-4 0 9990 2 42791 097.4131 135.0688 0012809 054.1435 306.0988 15.21681074040130 Robusta 1B 1 42792U 17036AD 18074.15008375 .00001534 00000-0 70625-4 0 9997 2 42792 97.4128 135.5267 0012732 53.0860 307.1540 15.21753590 40229 D-SAT 1 42794U 17036AF 18074.14545286 .00000188 00000-0 22175-4 0 9996 2 42794 97.6044 132.2975 0125988 234.7222 124.2159 14.90797618 39718 BIRD-J 1 42820U 98067MU 18074.15046181 .00020581 00000-0 22115-3 0 9992 2 42820 51.6362 117.9945 0002092 142.1077 218.0065 15.63731533 39126 BIRD-G 1 42821U 98067MV 18074.11305345 .00019954 00000-0 21736-3 0 9999 2 42821 51.6360 118.4953 0002016 146.0368 214.0756 15.63403593 39093 BIRD-M 1 42822U 98067MW 18074.16987757 .00022478 00000-0 24274-3 0 9993 2 42822 51.6360 118.1272 0001960 149.7558 210.3550 15.63541991 39101 BIRD-B 1 42823U 98067MX 18074.17023344 .00020495 00000-0 22141-3 0 9996 2 42823 51.6364 118.1409 0004145 189.9671 170.1242 15.63592675 39104 BIRD-N 1 42824U 98067MY 18073.41743957 .00014117 00000-0 15541-3 0 9992 2 42824 051.6375 122.1241 0004093 187.8636 172.2295 15.63427043039002 TechnoSat 1 42829U 17042E 18074.86653117 .00000233 00000-0 29136-4 0 9999 2 42829 97.6045 340.6961 0015071 144.7829 215.4389 14.90779967 36433 Mayak 1 42830U 17042F 18074.83238994 .00000797 00000-0 85623-4 0 9998 2 42830 97.6054 340.7617 0015116 142.2366 217.9917 14.91153695 36421 OBJECT MZ 1 42910U 98067MZ 18074.64991671 .00016387 00000-0 19429-3 0 9992 2 42910 51.6356 118.3181 0005186 219.3189 140.7429 15.61356964 32750 OBJECT NA 1 42911U 98067NA 18074.80845069 .00019229 00000-0 22190-3 0 9997 2 42911 51.6366 117.1570 0004646 214.2555 145.8140 15.61934605 32763 OBJECT NB 1 42912U 98067NB 18074.65399621 .00018329 00000-0 21518-3 0 9992 2 42912 51.6367 118.3403 0004132 229.5190 130.5444 15.61526841 32753 OBJECT NC 1 42913U 98067NC 18074.63249037 .00035123 00000-0 34362-3 0 9998 2 42913 51.6348 115.1970 0002361 255.1867 104.8867 15.65787147 32750 OBJECT ND 1 42914U 98067ND 18074.61821758 .00016191 00000-0 19379-3 0 9998 2 42914 51.6369 118.8845 0004148 220.8709 139.1974 15.61124612 32730 QIKCOM-1 1 42983U 98067NF 18074.26292495 .00002761 00000-0 46583-4 0 9991 2 42983 51.6423 126.0364 0004053 194.3073 282.0210 15.55549498 21597 AO-91 1 43017U 17073E 18074.78691383 .00000432 00000-0 39942-4 0 9998 2 43017 97.7023 9.8538 0259332 215.4033 142.9723 14.77938675 17317 EcAMSat 1 43019U 98067NG 18074.22841333 .00005939 00000-0 90562-4 0 9995 2 43019 51.6397 126.0522 0004804 177.1414 182.9605 15.56013637103911 PICSAT 1 43132U 18004X 18074.71729050 .00001602 00000-0 72461-4 0 9990 2 43132 97.5454 137.1063 0011584 69.8513 290.3968 15.22363041 9497 AO-92 1 43137U 18004AC 18074.12002449 .00001257 00000-0 57309-4 0 9996 2 43137 97.5452 136.5186 0011146 73.3161 286.9298 15.22484859 9399 TianYi 2 1 43155U 18008A 18074.89256755 .00001091 00000-0 70071-4 0 9992 2 43155 97.5316 150.9284 0019419 103.6698 18.2743 15.10388860 8404 2018-008C 1 43157U 18008C 18074.85922440 .00000243 00000-0 19049-4 0 9997 2 43157 97.5380 150.8747 0017457 94.8842 39.3138 15.09547925 8399 2018-008D 1 43158U 18008D 18074.84631491 .00000435 00000-0 30998-4 0 9999 2 43158 97.5308 150.8157 0015524 97.6965 327.3643 15.09556977 8371 FMN 1 1 43192U 18015A 18074.19085742 .00002353 00000-0 10446-3 0 9991 2 43192 97.3404 205.1307 0018538 110.1831 250.1402 15.22379612 6217 Shaonian Xing 1 43199U 18015H 18073.90136425 .00001832 00000-0 79692-4 0 9991 2 43199 097.3182 204.7947 0018802 124.0539 236.2487 15.23355912006187 /EX